Location: Park Creek Village Mobile Home Park
(38.2885°N, 122.4714°W)
Time: 20:17:37
(UTC+00:00)

Meteor 1-11 Rocket - Pass Details

Date: 14 December 2019
Orbit: 831 x 916 km, 81.2° (Epoch: 26 January)

Event Time Altitude Azimuth Distance (km) Brightness Sun altitude
Rises 13:37:40 0° 176° (S) 3,436 7.1 -19.2°
Reaches altitude 10° 13:40:05 10° 173° (S) 2,515 6.4 -18.7°
Maximum altitude 13:45:42 60° 95° (E) 1,015 4.4 -17.6°
Drops below altitude 10° 13:51:29 10° 17° (NNE) 2,586 6.2 -16.6°
Sets 13:54:00 0° 14° (NNE) 3,540 6.9 -16.1°
